CRK641 RJFF-VHHH

Flight info

Callsign CRK641
Flight time N/A
Altitude 36000
Route YAMGA VEMRA Y506 HKC A1 ELATO V522 ABBEY
Aircraft A320/M-SDE3FGHIRWY/LB1

Departure

Time 2026-04-29 11:05
Airport Fukuoka Airport (RJFF)

Arrival

Time N/A
Airport Hong Kong International Airport (VHHH)
Time Latitude Longitude Altitude Speed Heading
2026-04-29 10:41 33.59952 130.44562 25 ft 0 kts 61°
2026-04-29 10:51 33.59952 130.44561 25 ft 1 kts 61°
2026-04-29 10:51 33.59940 130.44536 27 ft 4 kts 61°
2026-04-29 10:51 33.59930 130.44514 28 ft 4 kts 80°
2026-04-29 10:52 33.59935 130.44488 26 ft 4 kts 139°
2026-04-29 10:52 33.59948 130.44477 25 ft 4 kts 151°
2026-04-29 10:52 33.59956 130.44472 27 ft 0 kts 151°
2026-04-29 10:54 33.59945 130.44479 25 ft 5 kts 151°
2026-04-29 10:54 33.59898 130.44510 26 ft 10 kts 151°
2026-04-29 10:55 33.59817 130.44554 27 ft 15 kts 175°
2026-04-29 10:55 33.59711 130.44527 27 ft 15 kts 160°
2026-04-29 10:55 33.59618 130.44597 27 ft 16 kts 150°
2026-04-29 10:55 33.59521 130.44662 26 ft 16 kts 151°
2026-04-29 10:56 33.59420 130.44730 24 ft 18 kts 150°
2026-04-29 10:56 33.59306 130.44808 25 ft 19 kts 150°
2026-04-29 10:56 33.59195 130.44884 25 ft 18 kts 150°
2026-04-29 10:56 33.59080 130.44962 25 ft 19 kts 150°
2026-04-29 10:57 33.58977 130.45033 29 ft 16 kts 150°
2026-04-29 10:57 33.58882 130.45099 31 ft 15 kts 150°
2026-04-29 10:57 33.58793 130.45160 31 ft 14 kts 150°
2026-04-29 10:57 33.58717 130.45210 34 ft 12 kts 150°
2026-04-29 10:58 33.58642 130.45261 35 ft 15 kts 150°
2026-04-29 10:58 33.58537 130.45333 34 ft 17 kts 150°
2026-04-29 10:58 33.58438 130.45401 35 ft 16 kts 150°
2026-04-29 10:58 33.58341 130.45469 32 ft 17 kts 150°
2026-04-29 10:59 33.58243 130.45534 34 ft 15 kts 150°
2026-04-29 10:59 33.58161 130.45590 36 ft 12 kts 150°
2026-04-29 10:59 33.58087 130.45640 37 ft 12 kts 150°
2026-04-29 10:59 33.58021 130.45685 39 ft 10 kts 150°
2026-04-29 11:00 33.57970 130.45721 41 ft 7 kts 150°
2026-04-29 11:00 33.57935 130.45744 43 ft 5 kts 150°
2026-04-29 11:00 33.57901 130.45768 44 ft 7 kts 150°
2026-04-29 11:00 33.57853 130.45801 42 ft 9 kts 150°
2026-04-29 11:01 33.57787 130.45847 44 ft 12 kts 150°
2026-04-29 11:01 33.57708 130.45903 44 ft 14 kts 149°
2026-04-29 11:01 33.57619 130.45956 44 ft 14 kts 169°
2026-04-29 11:01 33.57545 130.45896 45 ft 11 kts 238°
2026-04-29 11:02 33.57519 130.45816 44 ft 9 kts 284°
2026-04-29 11:02 33.57543 130.45782 45 ft 0 kts 330°
2026-04-29 11:04 33.57643 130.45715 44 ft 49 kts 330°
2026-04-29 11:04 33.58135 130.45381 38 ft 111 kts 330°
2026-04-29 11:04 33.58951 130.44826 33 ft 158 kts 330°
2026-04-29 11:04 33.59957 130.44132 419 ft 167 kts 331°
2026-04-29 11:05 33.60956 130.43433 1061 ft 166 kts 331°
2026-04-29 11:05 33.61957 130.42750 1681 ft 165 kts 332°
2026-04-29 11:05 33.62992 130.42048 2013 ft 181 kts 332°
2026-04-29 11:05 33.64156 130.41262 2219 ft 203 kts 332°
2026-04-29 11:06 33.65553 130.40754 2480 ft 221 kts
2026-04-29 11:06 33.66987 130.41491 2873 ft 234 kts 45°
2026-04-29 11:06 33.67945 130.43052 3534 ft 238 kts 60°
2026-04-29 11:06 33.68707 130.44872 4206 ft 244 kts 65°
2026-04-29 11:07 33.69414 130.46758 4772 ft 256 kts 70°
2026-04-29 11:07 33.69530 130.48929 5189 ft 271 kts 107°
2026-04-29 11:07 33.68552 130.50847 5841 ft 274 kts 141°
2026-04-29 11:07 33.67009 130.52200 6589 ft 277 kts 152°
2026-04-29 11:08 33.65314 130.53327 7320 ft 280 kts 156°
2026-04-29 11:08 33.63527 130.54275 8041 ft 281 kts 167°
2026-04-29 11:08 33.61650 130.55013 8794 ft 286 kts 165°
2026-04-29 11:08 33.59796 130.55848 9515 ft 291 kts 163°
2026-04-29 11:09 33.57903 130.56766 10216 ft 297 kts 163°
2026-04-29 11:09 33.55921 130.57752 10433 ft 320 kts 162°
2026-04-29 11:09 33.53794 130.58818 10574 ft 343 kts 162°
2026-04-29 11:09 33.51538 130.59958 10849 ft 358 kts 162°
2026-04-29 11:10 33.49220 130.61137 11389 ft 364 kts 162°
2026-04-29 11:10 33.46872 130.62333 11965 ft 369 kts 162°
2026-04-29 11:10 33.44496 130.63535 12591 ft 372 kts 164°
2026-04-29 11:10 33.42043 130.64481 13189 ft 372 kts 170°
2026-04-29 11:11 33.39540 130.65329 13771 ft 376 kts 171°
2026-04-29 11:11 33.37020 130.66174 14308 ft 379 kts 171°
2026-04-29 11:11 33.34470 130.67027 14851 ft 382 kts 171°
2026-04-29 11:11 33.31903 130.67886 15380 ft 384 kts 171°
2026-04-29 11:12 33.29320 130.68752 15893 ft 387 kts 172°
2026-04-29 11:12 33.26717 130.69626 16427 ft 390 kts 172°
2026-04-29 11:12 33.24132 130.70496 16977 ft 392 kts 172°
2026-04-29 11:12 33.21497 130.71382 17535 ft 395 kts 172°
2026-04-29 11:13 33.18837 130.72274 18082 ft 398 kts 172°
2026-04-29 11:13 33.16157 130.73173 18597 ft 402 kts 172°
2026-04-29 11:13 33.13457 130.74078 19067 ft 405 kts 172°
2026-04-29 11:13 33.10723 130.74766 19554 ft 399 kts 181°
2026-04-29 11:14 33.07974 130.74907 20031 ft 393 kts 190°
2026-04-29 11:14 33.05262 130.74616 20519 ft 392 kts 193°
2026-04-29 11:14 33.02541 130.74280 20975 ft 394 kts 193°
2026-04-29 11:14 32.99840 130.73940 21414 ft 397 kts 193°
2026-04-29 11:15 32.97085 130.73594 21826 ft 399 kts 193°
2026-04-29 11:15 32.94314 130.73251 22225 ft 402 kts 193°
2026-04-29 11:15 32.91528 130.72909 22626 ft 404 kts 193°
2026-04-29 11:15 32.88719 130.72568 23000 ft 406 kts 193°
2026-04-29 11:16 32.85899 130.72223 23357 ft 410 kts 193°
2026-04-29 11:16 32.83056 130.71878 23697 ft 412 kts 193°
2026-04-29 11:16 32.80188 130.71530 23998 ft 415 kts 193°
2026-04-29 11:16 32.77313 130.71184 24305 ft 416 kts 193°
2026-04-29 11:17 32.74425 130.70835 24621 ft 418 kts 193°
2026-04-29 11:17 32.71531 130.70483 24928 ft 419 kts 193°
2026-04-29 11:17 32.68661 130.70135 25210 ft 421 kts 193°
2026-04-29 11:17 32.65659 130.69770 25470 ft 424 kts 193°
2026-04-29 11:18 32.62713 130.69415 25752 ft 426 kts 193°
2026-04-29 11:18 32.59760 130.69058 26048 ft 428 kts 193°
2026-04-29 11:18 32.56795 130.68702 26345 ft 429 kts 193°
2026-04-29 11:18 32.53817 130.68341 26643 ft 431 kts 193°
2026-04-29 11:19 32.50831 130.67979 26945 ft 432 kts 193°
2026-04-29 11:19 32.47832 130.67616 27212 ft 434 kts 193°
2026-04-29 11:19 32.44826 130.67256 27583 ft 434 kts 193°
2026-04-29 11:19 32.41828 130.66897 27994 ft 433 kts 193°
2026-04-29 11:20 32.38838 130.66541 28412 ft 431 kts 193°
2026-04-29 11:20 32.35855 130.66187 28885 ft 429 kts 193°
2026-04-29 11:20 32.32932 130.65838 29382 ft 428 kts 193°
2026-04-29 11:20 32.29973 130.65485 29819 ft 426 kts 193°
2026-04-29 11:21 32.27027 130.65130 30239 ft 426 kts 193°
2026-04-29 11:21 32.24080 130.64771 30557 ft 425 kts 193°
2026-04-29 11:21 32.21140 130.64415 30940 ft 424 kts 193°
2026-04-29 11:21 32.18208 130.64064 31365 ft 422 kts 193°
2026-04-29 11:22 32.15296 130.63719 31780 ft 420 kts 193°
2026-04-29 11:22 32.12386 130.63372 32161 ft 419 kts 193°
2026-04-29 11:22 32.09487 130.63025 32531 ft 418 kts 193°
2026-04-29 11:22 32.06631 130.62683 32875 ft 419 kts 193°
2026-04-29 11:23 32.03736 130.62336 33229 ft 418 kts 193°
2026-04-29 11:23 32.00842 130.61987 33599 ft 417 kts 193°
2026-04-29 11:23 31.97958 130.61641 33971 ft 416 kts 193°
2026-04-29 11:23 31.95081 130.61296 34304 ft 415 kts 193°
2026-04-29 11:24 31.92209 130.60956 34595 ft 415 kts 193°
2026-04-29 11:24 31.89338 130.60618 34853 ft 415 kts 193°
2026-04-29 11:24 31.86465 130.60278 35083 ft 415 kts 193°
2026-04-29 11:24 31.83587 130.59935 35322 ft 416 kts 194°
2026-04-29 11:25 31.80747 130.59596 35555 ft 416 kts 194°
2026-04-29 11:25 31.77870 130.59257 35792 ft 416 kts 194°
2026-04-29 11:25 31.75036 130.58746 36004 ft 409 kts 201°
2026-04-29 11:26 31.67567 130.54458 36083 ft 399 kts 227°
2026-04-29 11:26 31.63966 130.49572 36079 ft 397 kts 236°
2026-04-29 11:27 31.60627 130.44471 36077 ft 397 kts 236°
2026-04-29 11:27 31.57248 130.39356 36077 ft 396 kts 236°